Torna al catalogo

STARLINK-31900

AttivoComunicazioniVLEO
NORAD 59942·PAYLOAD·🇺🇸 United States

Lanciato Jun 1, 2024 da Cape Canaveral Space Force Station

Loading…

Prossimi Passaggi (prossime 24 ore)

TLE

AggiornatoSource: CelesTrak SupGP

Epoca: Sep 15, 2026, 02:01 UTC

1 59942C 24106W   26258.08451389  .00036678  00000+0  13280-2 0  2586
2 59942  43.0035 342.6018 0001874 272.8728  28.5172 15.27570912    11

Traccia STARLINK-31900 in tempo reale con AllMySat

Download on the App Store